Retour au catalogue

STARLINK-31440

ActifCommunicationsVLEO
NORAD 58999·PAYLOAD·🇺🇸 United States

Lancé Feb 23, 2024 depuis Vandenberg Space Force Base

Loading…

Prochains Passages (prochaines 24 heures)

TLE

FraisSource: CelesTrak SupGP

Époque: Sep 14, 2026, 21:22 UTC

1 58999C 24036B   26257.89076389  .00046388  00000+0  13703-2 0  2578
2 58999  53.1581 277.9157 0001101  83.9123 161.2313 15.34373675    14

Suivez STARLINK-31440 en temps réel avec AllMySat

Download on the App Store